Aérodrome :
LOGIN :

S'inscrire | Disclaimer

   EN    FR    IT 

 










Légende :    VFR   VFR Marginal   IFR   IFR Intensif   IFR Très Intensif
Visi : 
Plafond : 
>= 8 km
>= 3000ft
5 à 8 km
1000 à 3000 ft
1500m à 5 km
500 à 1000 ft
800 à 1500m
200 à 500 ft
< 800m
< 200 ft
Symboles :   Orages  Brouillard  Fortes neiges  Fortes précipitations  Vent > 20 kt
SIGMETs :   Divers  Orages  Givrage  Turbulence  Onde Orograph.  Cendres Volcan.







- Altitude de l'aérodrome : 3368 ft


LSGC - Les Eplatures

DERNIER METAR :
  • 240950Z 26005KT 190V350 9999 BKN009 BKN014 17/15 Q1023

METARs EXPIRÉS :
  • 240920Z AUTO 22006KT 160V260 9999 BKN010 17/15 Q1023
  • 240850Z 22006KT 180V270 9999 OVC010 17/15 Q1023
  • 240820Z AUTO 23003KT 150V310 9999 OVC009 17/15 Q1023
  • 240750Z VRB01KT 9999 OVC009 17/15 Q1023
  • 240720Z AUTO 18004KT 150V210 9999 OVC009 17/15 Q1023

Prévision TAF périmée.
Pas de NOTAMs connus pour ce terrain.



MET'MAP, la Météo Aéronautique d'un coup d'oeil ! - Copyright ORBIFLY Décembre 2007 - Disclaimer

ORBIFLY MET'MAP TEAM :

Programmation & Développement : Alexandra Zaïnal
Conception & Développement : Baudouin d'Aumeries
Co-Programmation & Développement : Marc-Olivier Méhu
Soutien technique & logistique : Manuel Goepfert

Contact : metmap@orbifly.com




SOURCES & CREDITS :

   NOAA